Weather History for KGMJ - December, 2012

Change the Weather History Date:

Saturday, December 8, 2012

  Actual Average (KJLN) Record (KJLN)
Temperature  
Mean Temperature 50 °F 39 °F  
Max Temperature 55 °F 49 °F 73 °F (1991)
Min Temperature 46 °F 29 °F 7 °F (1995)
Degree Days  
Heating Degree Days 14 26  
Month to date heating degree days 200  
Since 1 July heating degree days 957  
Cooling Degree Days 0 0  
Month to date cooling degree days 0  
Year to date cooling degree days 1698  
Moisture  
Dew Point 51 °F    
Average Humidity 97    
Maximum Humidity 100    
Minimum Humidity 82    
Precipitation  
Precipitation 0.00 in 0.10 in 1.54 in (1980)
Month to date precipitation 0.83  
Year to date precipitation 44.56  
Sea Level Pressure  
Sea Level Pressure 29.89 in    
Wind  
Wind Speed 2 mph (NNE)    
Max Wind Speed 7 mph    
Max Gust Speed -    
Visibility 4 miles    
Events      
T = Trace of Precipitation, MM = Missing Value Source: NWS Daily Summary

Daily Weather History Graph

Daily Weather History Graph

Search for Another Location

Airport or City:

Trip Planner

Search our weather history database for the weather conditions in past years. The results will help you decide how hot, cold, wet, or windy it might be!

Date:

Astronomy

Dec. 08, 2012 Rise Set
Actual Time 7:19 AM CST 5:03 PM CST
Civil Twilight 6:50 AM CST 5:31 PM CST
Nautical Twilight 6:18 AM CST 6:04 PM CST
Astronomical Twilight 5:46 AM CST 6:35 PM CST
Moon 1:51 AM CST (12/8) 1:27 PM CST (12/8)
Length of Visible Light 10h 41m
Length of Day
9h 44m
Waning Crescent, 28% of the Moon is Illuminated
Dec 8
Waning Crescent
Dec 13
New
Dec 19
First Quarter
Dec 28
Full
Jan 4
Last Quarter

Hourly Weather History & Observations

Time (CST) Temp. Dew Point Humidity Pressure Visibility Wind Dir Wind Speed Gust Speed Precip Events Conditions
12:15 AM 53.6 °F 53.6 °F 100% 29.90 in 2.0 mi Calm Calm - N/A   Overcast
12:35 AM 53.6 °F 53.6 °F 100% 29.89 in 2.0 mi NNW 5.8 mph - N/A   Overcast
12:55 AM 53.6 °F 53.6 °F 100% 29.89 in 1.0 mi Calm Calm - N/A   Overcast
1:15 AM 53.6 °F 53.6 °F 100% 29.88 in 1.0 mi Calm Calm - N/A   Overcast
1:35 AM 53.6 °F 53.6 °F 100% 29.89 in 1.2 mi Calm Calm - N/A   Overcast
1:55 AM 51.8 °F 51.8 °F 100% 29.89 in 1.2 mi NNE 3.5 mph - N/A   Overcast
2:15 AM 51.8 °F 51.8 °F 100% 29.90 in 2.5 mi Calm Calm - N/A   Overcast
2:35 AM 51.8 °F 51.8 °F 100% 29.91 in 3.0 mi Calm Calm - N/A   Overcast
2:55 AM 51.8 °F 51.8 °F 100% 29.91 in 3.0 mi North 3.5 mph - N/A   Overcast
3:15 AM 51.8 °F 51.8 °F 100% 29.91 in 4.0 mi North 5.8 mph - N/A   Overcast
3:35 AM 51.8 °F 51.8 °F 100% 29.91 in 4.0 mi North 4.6 mph - N/A   Overcast
3:55 AM 51.8 °F 51.8 °F 100% 29.91 in 4.0 mi North 4.6 mph - N/A   Overcast
4:15 AM 51.8 °F 51.8 °F 100% 29.92 in 4.0 mi NNE 3.5 mph - N/A   Overcast
4:35 AM 51.8 °F 51.8 °F 100% 29.92 in 3.0 mi Calm Calm - N/A   Overcast
4:55 AM 51.8 °F 51.8 °F 100% 29.92 in 4.0 mi North 3.5 mph - N/A   Overcast
5:15 AM 51.8 °F 51.8 °F 100% 29.92 in 4.0 mi Calm Calm - N/A   Overcast
5:35 AM 51.8 °F 51.8 °F 100% 29.93 in 3.0 mi North 4.6 mph - N/A   Overcast
5:55 AM 50.0 °F 50.0 °F 100% 29.93 in 4.0 mi North 4.6 mph - N/A   Overcast
6:15 AM 50.0 °F 50.0 °F 100% 29.94 in 4.0 mi North 3.5 mph - N/A   Overcast
6:35 AM 50.0 °F 50.0 °F 100% 29.94 in 3.0 mi NNE 3.5 mph - N/A   Overcast
6:55 AM 50.0 °F 50.0 °F 100% 29.94 in 4.0 mi NE 3.5 mph - N/A   Overcast
7:15 AM 50.0 °F 50.0 °F 100% 29.94 in 5.0 mi NE 3.5 mph - N/A   Overcast
7:35 AM 50.0 °F 50.0 °F 100% 29.94 in 4.0 mi NE 3.5 mph - N/A   Overcast
7:55 AM 50.0 °F 50.0 °F 100% 29.95 in 4.0 mi Calm Calm - N/A   Overcast
8:15 AM 50.0 °F 50.0 °F 100% 29.95 in 4.0 mi NE 3.5 mph - N/A   Overcast
8:35 AM 50.0 °F 50.0 °F 100% 29.95 in 5.0 mi NE 3.5 mph - N/A   Overcast
8:55 AM 51.8 °F 51.8 °F 100% 29.95 in 5.0 mi Calm Calm - N/A   Overcast
9:15 AM 51.8 °F 51.8 °F 100% 29.94 in 5.0 mi ENE 3.5 mph - N/A   Overcast
9:55 AM 51.8 °F 51.8 °F 100% 29.94 in 5.0 mi NE 5.8 mph - N/A   Mostly Cloudy
10:15 AM 53.6 °F 51.8 °F 94% 29.94 in 5.0 mi ENE 5.8 mph - N/A   Overcast
10:55 AM 53.6 °F 51.8 °F 94% 29.93 in 7.0 mi ENE 4.6 mph - N/A   Overcast
11:15 AM 53.6 °F 51.8 °F 94% 29.93 in 7.0 mi Calm Calm - N/A   Overcast
11:35 AM 53.6 °F 51.8 °F 94% 29.93 in 7.0 mi NE 3.5 mph - N/A   Overcast
11:55 AM 53.6 °F 51.8 °F 94% 29.92 in 5.0 mi Calm Calm - N/A   Overcast
12:15 PM 53.6 °F 51.8 °F 94% 29.91 in 5.0 mi NE 3.5 mph - N/A   Overcast
12:35 PM 53.6 °F 51.8 °F 94% 29.90 in 5.0 mi NNE 3.5 mph - N/A   Overcast
12:55 PM 53.6 °F 51.8 °F 94% 29.88 in 5.0 mi NE 3.5 mph - N/A   Overcast
1:15 PM 53.6 °F 51.8 °F 94% 29.87 in 7.0 mi NNE 3.5 mph - N/A   Overcast
1:55 PM 55.4 °F 51.8 °F 88% 29.86 in 7.0 mi NNE 4.6 mph - N/A   Overcast
2:15 PM 55.4 °F 53.6 °F 94% 29.85 in 7.0 mi Calm Calm - N/A   Overcast
2:35 PM 55.4 °F 53.6 °F 94% 29.84 in 7.0 mi NNE 3.5 mph - N/A   Overcast
2:55 PM 55.4 °F 53.6 °F 94% 29.84 in 7.0 mi Calm Calm - N/A   Overcast
3:15 PM 55.4 °F 50.0 °F 82% 29.84 in 7.0 mi NNE 6.9 mph - N/A   Overcast
3:35 PM 53.6 °F 50.0 °F 88% 29.84 in 5.0 mi North 4.6 mph - N/A   Haze
3:55 PM 55.4 °F 50.0 °F 82% 29.84 in 7.0 mi NNE 3.5 mph - N/A   Overcast
4:15 PM 55.4 °F 50.0 °F 82% 29.84 in 7.0 mi Calm Calm - N/A   Overcast
4:35 PM 53.6 °F 50.0 °F 88% 29.84 in 7.0 mi Calm Calm - N/A   Overcast
4:55 PM 53.6 °F 50.0 °F 88% 29.84 in 5.0 mi Calm Calm - N/A   Haze
5:15 PM 53.6 °F 50.0 °F 88% 29.84 in 5.0 mi Calm Calm - N/A   Mostly Cloudy
5:35 PM 53.6 °F 48.2 °F 82% 29.84 in 7.0 mi Calm Calm - N/A   Mostly Cloudy
5:55 PM 51.8 °F 50.0 °F 94% 29.84 in 5.0 mi Calm Calm - N/A   Scattered Clouds
6:15 PM 50.0 °F 50.0 °F 100% 29.85 in 5.0 mi Calm Calm - N/A   Clear
6:55 PM 50.0 °F 50.0 °F 100% 29.84 in 4.0 mi Calm Calm - N/A   Clear
7:15 PM 46.4 °F 46.4 °F 100% 29.84 in 4.0 mi Calm Calm - N/A   Clear
7:35 PM 46.4 °F 46.4 °F 100% 29.84 in 2.5 mi Calm Calm - N/A   Scattered Clouds
7:55 PM 48.2 °F 48.2 °F 100% 29.84 in 3.0 mi Calm Calm - N/A   Overcast
8:15 PM 50.0 °F 50.0 °F 100% 29.84 in 3.0 mi Calm Calm - N/A   Overcast
8:35 PM 50.0 °F 50.0 °F 100% 29.84 in 3.0 mi Calm Calm - N/A   Overcast
8:55 PM 50.0 °F 50.0 °F 100% 29.84 in 3.0 mi Calm Calm - N/A   Overcast
9:15 PM 50.0 °F 50.0 °F 100% 29.83 in 3.0 mi Calm Calm - N/A   Overcast
9:35 PM 50.0 °F 50.0 °F 100% 29.84 in 3.0 mi Calm Calm - N/A   Overcast
9:55 PM 50.0 °F 50.0 °F 100% 29.84 in 3.0 mi Calm Calm - N/A   Overcast
10:15 PM 50.0 °F 50.0 °F 100% 29.84 in 3.0 mi Calm Calm - N/A   Overcast
10:35 PM 50.0 °F 50.0 °F 100% 29.84 in 4.0 mi Calm Calm - N/A   Overcast
11:15 PM 50.0 °F 50.0 °F 100% 29.84 in 3.0 mi Calm Calm - N/A   Overcast
11:35 PM 50.0 °F 50.0 °F 100% 29.84 in 4.0 mi Calm Calm - N/A   Overcast
11:55 PM 50.0 °F 50.0 °F 100% 29.84 in 4.0 mi Calm Calm - N/A   Overcast